Location: Ferchesar
(52.6477°N, 12.4298°E)
Time: 20:36:12
(UTC+01:00)

Vanguard 2 Rocket - All Passes

Search period start: 04 March 2021 00:00
Search period end: 14 March 2021 00:00
Orbit: 554 x 3325 km, 32.9° (Epoch: 03 March)

Date Brightness Start Highest point End Pass type
(mag) Time Alt. Az. Time Alt. Az. Time Alt. Az.
04 Mar - 04:18:27 10° S 04:22:36 15° SSE 04:27:55 10° ESE visible
04 Mar - 06:27:41 10° SW 06:34:44 26° S 06:45:10 10° SE daylight
04 Mar - 08:39:47 10° WSW 08:48:13 23° SSW 08:59:49 10° SSE daylight
04 Mar - 10:57:17 10° SW 11:02:08 12° SW 11:07:31 10° SSW daylight
05 Mar - 05:29:15 10° SSW 05:35:03 22° SSE 05:43:22 10° ESE visible
05 Mar - 07:40:25 10° SW 07:47:59 24° S 07:58:48 10° SE daylight
05 Mar - 09:55:05 10° WSW 10:01:45 15° SSW 10:09:48 10° S daylight
06 Mar - 04:31:18 10° SSW 04:35:38 17° SSE 04:41:25 10° ESE visible
06 Mar - 06:41:26 10° SW 06:48:00 23° S 06:57:29 10° SE daylight
06 Mar - 08:54:32 10° SW 09:01:27 18° SSW 09:10:20 10° SSE daylight
07 Mar - 03:34:27 10° S 03:36:30 11° SSE 03:38:49 10° SE visible
07 Mar - 05:42:49 10° SW 05:48:17 21° S 05:56:02 10° SE visible
07 Mar - 07:54:47 10° SW 08:01:17 19° SSW 08:10:03 10° SSE daylight
08 Mar - 04:44:36 10° SSW 04:48:50 17° SSE 04:54:31 10° SE visible
08 Mar - 06:55:33 10° SW 07:01:21 19° S 07:09:16 10° SSE daylight
08 Mar - 09:11:11 10° SW 09:14:41 12° SSW 09:18:37 10° S daylight
09 Mar - 03:47:03 10° S 03:49:38 13° SSE 03:52:42 10° SE visible
09 Mar - 05:56:44 10° SW 06:01:38 18° S 06:08:17 10° SE visible
09 Mar - 08:10:12 10° SW 08:14:37 13° SSW 08:19:58 10° S daylight
10 Mar - 04:58:18 10° SSW 05:02:10 16° S 05:07:10 10° SE visible
10 Mar - 07:10:24 10° SW 07:14:44 14° SSW 07:20:09 10° SSE daylight
11 Mar - 04:00:23 10° SSW 04:02:53 13° SSE 04:05:51 10° SE visible
11 Mar - 06:11:15 10° SW 06:15:03 14° S 06:19:48 10° SSE daylight
12 Mar - 05:12:34 10° SSW 05:15:33 13° S 05:19:11 10° SSE visible
13 Mar - 04:14:29 10° SSW 04:16:15 11° S 04:18:14 10° SSE visible
